Terminal Aerodrome Forecast
Issued by NWS Medford, OR

Home | Current Version | Previous Version | Text Only | Print | Product List | Glossary On
Versions: 1 2 3 4 5 6 7 8 9 10 11 12
015
FTUS46 KMFR 291132
TAFMFR
TAF
KMFR 291132Z 2912/3012 VRB03KT P6SM SKC
     FM292300 30010G15KT P6SM SKC
     FM300400 VRB03KT P6SM SKC=

USA.gov is the U.S. government's official web portal to all federal, state and local government web resources and services.